Location: Azul
(36.7830°S, 59.8500°W)
Time: 08:28:38
(UTC-03:00)

DOVE 4 - Pass Details

Date: 01 November 2021
Orbit: 588 x 799 km, 97.8° (Epoch: 07 December)

Event Time Altitude Azimuth Distance (km) Brightness Sun altitude
Exits shadow 00:03:54 24° 164° (SSE) 1,622 ? -37.9°
Drops below altitude 10° 00:06:11 10° 178° (S) 2,401 ? -38.0°
Sets 00:08:37 0° 184° (S) 3,328 ? -38.1°
